CFG22K EDDN-EDDH

Flight info

Callsign CFG22K
Flight time N/A
Altitude 30000
Route ERETO1C ERETO DCT LONLI M726 LASTO M852 LARET/N0441F340 M852 HLZ Z990 DIRBO/N0386F230 T902 RARUP RARUP6A
Aircraft A321/M-SDE3FGHIRWY/LB1

Departure

Time 2026-05-06 15:46
Airport Nuremberg Airport (EDDN)

Arrival

Time N/A
Airport Hamburg Helmut Schmidt Airport (EDDH)
Time Latitude Longitude Altitude Speed Heading
2026-05-06 15:17 49.49542 11.07586 1034 ft 0 kts 188°
2026-05-06 15:17 49.49539 11.07586 1026 ft 0 kts 188°
2026-05-06 15:36 49.49542 11.07586 1026 ft 3 kts 188°
2026-05-06 15:37 49.49566 11.07592 1026 ft 2 kts 188°
2026-05-06 15:37 49.49587 11.07600 1026 ft 4 kts 218°
2026-05-06 15:37 49.49599 11.07628 1026 ft 4 kts 272°
2026-05-06 15:37 49.49597 11.07652 1024 ft 1 kts 278°
2026-05-06 15:40 49.49599 11.07634 1026 ft 5 kts 278°
2026-05-06 15:40 49.49605 11.07576 1024 ft 6 kts 278°
2026-05-06 15:41 49.49611 11.07513 1024 ft 8 kts 278°
2026-05-06 15:41 49.49623 11.07385 1026 ft 13 kts 278°
2026-05-06 15:41 49.49638 11.07252 1025 ft 11 kts 284°
2026-05-06 15:41 49.49664 11.07220 1024 ft 4 kts 357°
2026-05-06 15:42 49.49714 11.07225 1023 ft 8 kts 339°
2026-05-06 15:42 49.49739 11.07161 1022 ft 7 kts 282°
2026-05-06 15:42 49.49748 11.07090 1022 ft 7 kts 279°
2026-05-06 15:42 49.49755 11.07021 1021 ft 7 kts 278°
2026-05-06 15:43 49.49765 11.06919 1020 ft 10 kts 278°
2026-05-06 15:43 49.49774 11.06810 1020 ft 10 kts 278°
2026-05-06 15:43 49.49784 11.06708 1020 ft 11 kts 279°
2026-05-06 15:43 49.49803 11.06538 1020 ft 19 kts 279°
2026-05-06 15:44 49.49823 11.06334 1018 ft 19 kts 278°
2026-05-06 15:44 49.49842 11.06141 1020 ft 16 kts 276°
2026-05-06 15:44 49.49873 11.05993 1022 ft 13 kts 314°
2026-05-06 15:44 49.49940 11.05946 1023 ft 9 kts 339°
2026-05-06 15:45 49.49981 11.05924 1025 ft 4 kts 348°
2026-05-06 15:45 49.50018 11.05932 1027 ft 7 kts 19°
2026-05-06 15:45 49.50044 11.06151 1025 ft 50 kts 107°
2026-05-06 15:45 49.49950 11.07013 1021 ft 113 kts 99°
2026-05-06 15:46 49.49799 11.08462 1038 ft 159 kts 97°
2026-05-06 15:46 49.49650 11.10171 1626 ft 157 kts 96°
2026-05-06 15:46 49.49490 11.11838 2255 ft 159 kts 99°
2026-05-06 15:46 49.49310 11.13614 2595 ft 178 kts 99°
2026-05-06 15:47 49.49111 11.15615 2805 ft 200 kts 97°
2026-05-06 15:47 49.49200 11.17855 2956 ft 222 kts 76°
2026-05-06 15:47 49.49879 11.20124 3137 ft 247 kts 52°
2026-05-06 15:47 49.51148 11.21986 3558 ft 264 kts 36°
2026-05-06 15:48 49.52617 11.23744 4309 ft 270 kts 38°
2026-05-06 15:48 49.54104 11.25555 5123 ft 275 kts 38°
2026-05-06 15:48 49.55611 11.27400 5934 ft 279 kts 39°
2026-05-06 15:48 49.57144 11.29285 6534 ft 285 kts 39°
2026-05-06 15:49 49.58753 11.31085 6729 ft 287 kts 29°
2026-05-06 15:49 49.60605 11.32233 7055 ft 289 kts 12°
2026-05-06 15:49 49.62560 11.32768 7848 ft 291 kts
2026-05-06 15:49 49.64578 11.33291 8604 ft 296 kts
2026-05-06 15:50 49.66624 11.33829 9342 ft 301 kts
2026-05-06 15:50 49.68705 11.34380 9994 ft 308 kts
2026-05-06 15:50 49.70885 11.34956 10441 ft 322 kts
2026-05-06 15:50 49.73189 11.35208 10676 ft 343 kts 356°
2026-05-06 15:51 49.75591 11.34716 10931 ft 357 kts 344°
2026-05-06 15:51 49.78083 11.33797 11043 ft 379 kts 343°
2026-05-06 15:51 49.80666 11.32819 11284 ft 395 kts 344°
2026-05-06 15:51 49.83344 11.31804 11831 ft 400 kts 344°
2026-05-06 15:52 49.86071 11.30775 12456 ft 404 kts 344°
2026-05-06 15:52 49.88813 11.29739 13090 ft 407 kts 344°
2026-05-06 15:52 49.91581 11.28691 13672 ft 411 kts 344°
2026-05-06 15:52 49.93992 11.27777 14142 ft 414 kts 344°
2026-05-06 15:53 49.96803 11.26715 14675 ft 416 kts 344°
2026-05-06 15:53 49.99590 11.25660 15208 ft 419 kts 344°
2026-05-06 15:53 50.02300 11.24626 15729 ft 422 kts 344°
2026-05-06 15:53 50.05160 11.23527 16271 ft 424 kts 345°
2026-05-06 15:54 50.08080 11.22741 16793 ft 429 kts 353°
2026-05-06 15:54 50.11076 11.22645 17296 ft 433 kts 359°
2026-05-06 15:54 50.13657 11.22681 17748 ft 435 kts 359°